[Date Prev][Date Next][Thread Prev][Thread Next] - [Date Index][Thread Index][Author Index]
2 Line ISS Keps 8-21
- Subject: [sarex] 2 Line ISS Keps 8-21
- From: "Dr Dave Larsen" <doc@xxxxxxxxxxx>
- Date: Sun, 21 Aug 2005 05:38:18 -0700
ISS
1 25544U 98067A 05233.48828704 .00014794 00000-0 11572-3 0 1901
2 25544 051.6442 286.5967 0001074 325.2628 246.9186 15.71875231385953
----
Via the sarex mailing list at AMSAT.ORG courtesy of AMSAT-NA.
To unsubscribe, send "unsubscribe sarex" to Majordomo@amsat.org
AMSAT Home